Other Surface Observations
Issued by NWS

Home | Current Version | Previous Version | Text Only | Print | Product List | Glossary On
Versions: 1 2 3 4 5 6 7 8 9 10 11 12 13 14 15 16 17 18 19 20 21 22 23 24 25 26 27 28 29 30 31 32 33 34 35 36 37 38 39 40 41 42 43 44 45 46 47 48 49 50
422
SXUS52 KTAE 241018
OSOTAE
OSOTAE
North Florida/South Alabama/Southwest Georgia Weather Roundup
National Weather Service Tallahassee Florida
500 AM EST FRI NOV 24 2017

Note: "fair" indicates few or no clouds below 12,000 feet with no
significant weather and/or obstructions to visibility.

!FLZ017-115-028-034-025-241100
...North Florida...

CITY           SKY/WX    TMP DP  RH WIND       PRES   REMARKS
TALLAHASSEE    CLEAR     54  53  97 N3        29.96R
APALACHICOLA   CLOUDY    56  56 100 N9        29.95R
PERRY          CLOUDY    54  51  92 N6        29.95R
CROSS CITY     CLOUDY    55  55  97 N7        29.96R
JACKSONVILLE   CLOUDY    54  52  93 N7        29.90R
$$

!FLZ112-006-005-002-011-241100
...Florida Panhandle...

CITY           SKY/WX    TMP DP  RH WIND       PRES   REMARKS
MARIANNA       PTCLDY    50  49  96 N3        29.98R
BONIFAY        NOT AVBL
PANAMA CITY NW FAIR      48  46  93 CALM      29.96S
TYNDALL AFB    CLEAR     54  53  94 NE6       29.97R
TYND DRONE APT PTSUNNY   54  54 100 NE12      29.97R
DE FUNIAK SPR  PTSUNNY   47  42  82 NE7       29.98S WCI  44
EGLIN AFB      MOCLDY    47  37  68 N8        29.97R WCI  43
DESTIN         CLEAR     53  42  66 N6        29.97S
HURLBURT       CLEAR     45  38  76 N7        29.96S WCI  41
CRESTVIEW      MOCLDY    42  37  82 CALM      29.99S
PENSACOLA      CLEAR     48  33  56 N12       29.98S WCI  43
$$

!ALZ063-066-241100
...South Alabama...

CITY           SKY/WX    TMP DP  RH WIND       PRES   REMARKS
DOTHAN         CLEAR     48  47  96 NE5       30.02S
OZARK CAIRNS   CLEAR     45  42  90 NE5       29.98S WCI  43
FT RUCKER HELI CLEAR     41  41 100 CALM      29.98S
RUCKER HELI 3    N/A     47  45  93 CALM      29.98S
RUCKER HELI 2  FAIR      46  44  93 CALM      29.98S
FLORALA APT    CLEAR     41  37  86 CALM      30.00S
ANDALUSIA      PTCLDY    44  38  79 CALM      29.98S
TROY           MOCLDY    39  39 100 CALM      30.00S
EUFALA         FAIR      42  40  92 CALM      29.99S FOG
MOBILE         CLEAR     40  27  59 N5        30.01S WCI  37
$$

!GAZ120>161-241100
...Southwest and South Central Georgia...

CITY           SKY/WX    TMP DP  RH WIND       PRES   REMARKS
THOMASVILLE    FAIR      52  52 100 N5        29.97S
BAINBRIDGE     PTCLDY    54  52  94 N3        29.98S
MOODY AFB      CLEAR     49  47  95 N6        29.95R
VALDOSTA       PTCLDY    50  49  96 N7        29.96R
MOULTRIE       CLEAR     50  48  93 NE3       29.97S
BLAKELY        CLEAR     45  43  93 CALM      30.00S
ALBANY         PTCLDY    47  44  90 N5        29.97S WCI  45
TIFTON         FAIR      46  46 100 NE5       29.98S WCI  44
FITZGERALD     FAIR      45  42  89 NE6       30.01S WCI  42
CORDELE        FAIR      46  43  88 CALM      30.01S
AMERICUS       FAIR      41  36  81 NE6       30.02S WCI  37
HOMERVILLE     FAIR      46  45  93 N3        29.96S
$$

!GMZ750-755-770-775-241100
...Coastal and Buoy Obs...

STATION/POSITION TIME  TEMP    WIND        PRES    VSBY  WAVE
                       AIR SEA DIR/SP/G                  HT/PER
                 (UTC) (F)     (DEG/KT/KT) (MB)    (MI)  (FT/S)
KEATON BEACH     1000   54      10/  5/  7 1013.0R
CEDAR KEY        1000   57      20/  8/ 10 1012.4R
C TOWER          1000   58      20/ 14/ 16 1014.6R
APALACHICOLA BUO 0950   67 74   10/ 14/ 17   N/A           4/ 6
PANAMA CITY BUOY 0950   67 76   40/ 14/ 17 1012.7F         3/ 6
MOBILE BUOY      1000   63 77   20/  8/ 12 1015.0
ORANGE BCH AL BU NOT AVBL
$$




USA.gov is the U.S. government's official web portal to all federal, state and local government web resources and services.